Location: Amsterdam
(30.7274°N, 84.4357°W)
Time: 15:34:43
(UTC+00:00)

A-11 Canister half - All Passes

Search period start: 10 February 2026 00:00
Search period end: 20 February 2026 00:00
Orbit: 1526 x 1682 km, 47.3° (Epoch: 10 February)

Date Brightness Start Highest point End Pass type
(mag) Time Alt. Az. Time Alt. Az. Time Alt. Az.
10 Feb - 00:09:07 10° WSW 00:18:19 60° NNW 00:27:31 10° NE visible
10 Feb - 02:17:06 10° WNW 02:24:59 30° N 02:32:57 10° NE visible
10 Feb - 04:24:21 10° NW 04:32:36 33° NNE 04:41:02 10° ENE visible
10 Feb - 06:29:22 10° NW 06:38:51 77° NE 06:48:37 10° SE night (unlit)
10 Feb - 08:35:19 10° WNW 08:43:18 31° SW 08:51:33 10° S visible
10 Feb - 21:43:17 10° SSW 21:51:49 40° SE 22:00:13 10° ENE daylight
10 Feb - 23:47:12 10° WSW 23:56:27 63° NW 00:05:41 10° NE visible
11 Feb - 01:55:06 10° WNW 02:03:02 30° N 02:11:02 10° NE visible
11 Feb - 04:02:29 10° NW 04:10:40 33° NNE 04:18:59 10° ENE visible
11 Feb - 06:07:33 10° NW 06:17:00 74° NE 06:26:43 10° ESE night (unlit)
11 Feb - 08:13:21 10° WNW 08:21:31 33° SW 08:29:56 10° S visible
11 Feb - 21:21:37 10° SSW 21:30:02 37° SE 21:38:17 10° ENE daylight
11 Feb - 23:25:18 10° WSW 23:34:36 66° NW 23:43:51 10° NE daylight
12 Feb - 01:33:06 10° WNW 01:41:05 31° NNW 01:49:08 10° NE visible
12 Feb - 03:40:37 10° NW 03:48:43 32° NNE 03:56:57 10° ENE visible
12 Feb - 05:45:44 10° NW 05:55:08 70° NE 06:04:48 10° ESE night (unlit)
12 Feb - 07:51:23 10° WNW 07:59:43 35° SW 08:08:18 10° S night (unlit)
12 Feb - 21:00:00 10° S 21:08:14 35° SE 21:16:21 10° ENE daylight
12 Feb - 23:03:23 10° WSW 23:12:45 69° NW 23:22:02 10° NE daylight
13 Feb - 01:11:06 10° WNW 01:19:08 31° NNW 01:27:14 10° NE visible
13 Feb - 03:18:44 10° NW 03:26:46 31° NNE 03:34:55 10° ENE visible
13 Feb - 05:23:54 10° NW 05:33:16 67° NE 05:42:53 10° ESE night (unlit)
13 Feb - 07:29:27 10° WNW 07:37:55 38° SW 07:46:38 10° SSE night (unlit)
13 Feb - 20:38:22 10° S 20:46:27 33° SE 20:54:24 10° ENE daylight
13 Feb - 22:41:30 10° WSW 22:50:54 73° NW 23:00:12 10° NE daylight
14 Feb - 00:49:06 10° WNW 00:57:12 32° NNW 01:05:20 10° NE visible
14 Feb - 02:56:50 10° NW 03:04:49 31° NNE 03:12:53 10° ENE visible
14 Feb - 05:02:06 10° NW 05:11:24 64° NE 05:20:57 10° ESE visible
14 Feb - 07:07:31 10° WNW 07:16:07 40° SW 07:24:58 10° SSE night (unlit)
14 Feb - 20:16:46 10° S 20:24:40 30° SE 20:32:25 10° ENE daylight
14 Feb - 22:19:37 10° WSW 22:29:02 76° NW 22:38:23 10° NE daylight
15 Feb - 00:27:05 10° WNW 00:35:15 33° NNW 00:43:27 10° NE visible
15 Feb - 02:34:57 10° NW 02:42:52 30° N 02:50:52 10° ENE visible
15 Feb - 04:40:17 10° NW 04:49:32 61° NNE 04:59:00 10° ESE visible
15 Feb - 06:45:37 10° WNW 06:54:19 43° SW 07:03:16 10° SSE night (unlit)
15 Feb - 19:55:12 10° S 20:02:54 28° SE 20:10:26 10° ENE daylight
15 Feb - 21:57:44 10° SW 22:07:12 80° NW 22:16:33 10° NE daylight
16 Feb - 00:05:05 10° W 00:13:19 34° NNW 00:21:35 10° NE visible
16 Feb - 02:13:02 10° NW 02:20:55 29° N 02:28:51 10° ENE visible
16 Feb - 04:18:28 10° NW 04:27:40 58° NNE 04:37:04 10° ESE visible
16 Feb - 06:23:42 10° WNW 06:32:31 46° SW 06:41:34 10° SSE night (unlit)
16 Feb - 19:33:37 10° S 19:41:07 26° SE 19:48:26 10° ENE daylight
16 Feb - 21:35:52 10° SW 21:45:22 84° NW 21:54:43 10° NE daylight
16 Feb - 23:43:04 10° W 23:51:24 35° NNW 23:59:42 10° NE visible
17 Feb - 01:51:08 10° NW 01:58:57 29° N 02:06:50 10° ENE visible
17 Feb - 03:56:38 10° NW 04:05:47 56° NNE 04:15:07 10° ESE visible
17 Feb - 06:01:49 10° WNW 06:10:42 49° SW 06:19:51 10° SSE night (unlit)
17 Feb - 19:12:06 10° S 19:19:20 25° SE 19:26:24 10° ENE daylight
17 Feb - 21:14:00 10° SW 21:23:32 88° NW 21:32:54 10° NE daylight
17 Feb - 23:21:04 10° W 23:29:28 36° NNW 23:37:50 10° NE daylight
18 Feb - 01:29:13 10° NW 01:37:00 29° N 01:44:49 10° ENE visible
18 Feb - 03:34:49 10° NW 03:43:54 53° NNE 03:53:09 10° ESE visible
18 Feb - 05:39:55 10° WNW 05:48:54 52° SW 05:58:07 10° SSE night (unlit)
18 Feb - 18:50:36 10° S 18:57:33 23° SE 19:04:20 10° ENE daylight
18 Feb - 20:52:09 10° SW 21:01:42 88° SE 21:11:04 10° NE daylight
18 Feb - 22:59:03 10° W 23:07:33 37° NNW 23:15:59 10° NE daylight
19 Feb - 01:07:17 10° NW 01:15:02 28° N 01:22:49 10° ENE visible
19 Feb - 03:13:00 10° NW 03:22:01 51° NNE 03:31:12 10° ESE visible
19 Feb - 05:18:03 10° WNW 05:27:05 55° SW 05:36:22 10° SSE visible
19 Feb - 18:29:08 10° S 18:35:46 21° SE 18:42:16 10° E daylight
19 Feb - 20:30:18 10° SW 20:39:52 84° SE 20:49:13 10° NE daylight
19 Feb - 22:37:03 10° W 22:45:37 38° NNW 22:54:08 10° NE daylight
